Simultaneous Nadir Overpasses (SNOs) Predictions

Prediction of SNOs between GOES-16 and METOP-C Satellite Orbit:

Table of predicted SNOs for the next 14.0 days since TLE Epoch: 6/12/2020
Index Date Time (GOES-16) GOES-16 Lat,Lon METOP-C Lat,Lon Distance(km) Time Diff (sec)
1 06/13/2020 14:33:04 0.02, -75.18 0.13, -75.69 57.91 80
2 06/16/2020 02:31:25 -0.02, -75.18 -0.06, -75.29 13.01 80
3 06/18/2020 14:32:18 0.02, -75.24 -0.06, -74.86 42.08 80
4 06/20/2020 02:51:18 -0.01, -75.23 -0.96, -79.46 482.38 80
5 06/21/2020 02:27:59 -0.01, -75.24 0.15, -74.47 87.94 80
6 06/22/2020 14:46:51 0.01, -75.28 0.86, -79.03 427.33 80
7 06/23/2020 14:28:52 0.00, -75.30 -0.25, -74.04 143.27 80
8 06/25/2020 02:47:52 -0.00, -75.30 -0.75, -78.64 380.46 80
9 06/26/2020 02:24:32 -0.00, -75.31 0.35, -73.64 190.42 80




NCC Satellite Simultaneous Nadir Overpasses (SNOs) Prediction Service
